Wind_Speed
31 32 32 33 33 34 27 6 3 12 28 4 2 3 4 2 6 2 5 2 7 8 10 10 8 11 9 5 3 3 3 4 4 9 20 8 10 4 4 2 7 7 4 2
24 25 26 29 34 38 18 3 3 6 13 7 5 2 7 5 4 3 3 4 6 1 2 4 7 5 2 2 3 3 1 1 5 9 5 4 4 8 5 5 7 2 3 5
24 25 25 25 30 32 15 4 4 2 2 1 6 7 7 6 5 3 4 6 1 2 5 8 4 5 4 3 4 10 6 5 8 7 11 7 10 13 12 5 4 3 8 19
21 23 25 27 29 30 14 2 3 4 8 9 4 9 4 10 5 2 2 2 12 9 5 10 12 8 4 5 5 3 5 6 6 11 13 13 16 19 12 12 13 10 22 19
20 23 27 28 30 31 5 4 4 1 3 9 10 10 7 7 4 3 4 5 3 3 8 14 12 7 4 5 5 5 3 4 3 6 14 12 12 19 23 17 18 15 18 21
25 26 29 32 34 26 5 4 2 4 8 6 10 10 16 9 7 6 13 9 5 7 5 3 7 6 3 4 7 6 4 3 2 6 6 4 6 20 16 12 12 11 11 17
29 30 29 31 33 33 9 5 5 3 3 8 8 10 11 13 12 4 3 6 5 4 8 2 3 4 7 6 9 6 4 3 2 5 6 5 10 6 13 12 7 5 7 11
34 32 32 32 33 35 14 14 5 2 2 4 7 8 5 9 8 7 6 7 8 8 5 3 4 3 3 5 9 11 14 5 3 3 4 8 10 3 4 7 3 7 10 13
37 37 35 33 31 36 24 21 11 4 4 3 2 5 6 4 4 3 5 3 3 4 2 3 3 2 2 3 4 5 6 10 4 3 4 4 1 13 11 13 6 9 11 10
37 39 39 37 36 36 28 12 15 7 3 3 4 3 5 5 3 4 2 5 2 3 2 3 3 4 3 4 3 2 2 1 6 7 7 6 10 17 17 6 6 18 14 12
40 41 42 39 40 38 28 14 20 10 2 4 3 2 1 3 4 4 4 4 2 2 2 3 3 3 4 2 4 3 3 3 3 3 5 6 12 14 7 11 9 11 14 13
40 42 44 39 40 41 29 10 19 14 3 2 1 4 13 7 4 4 1 4 4 4 3 1 2 1 1 4 3 3 4 6 4 7 5 5 5 12 17 12 10 13 15 12
40 41 44 44 42 43 30 23 25 15 2 3 0 6 17 13 12 5 4 2 4 3 4 3 2 3 3 3 5 4 4 4 4 1 7 13 8 12 12 7 12 16 15 14
38 43 44 45 45 44 31 23 26 19 3 3 4 3 6 19 12 10 4 5 4 4 2 2 3 3 5 4 5 5 6 4 4 8 13 9 12 9 6 11 14 14 12 9
38 44 44 46 43 42 25 19 29 20 4 3 3 6 9 11 16 21 14 7 4 2 1 2 3 3 2 3 2 9 6 10 4 9 10 8 13 6 8 14 16 12 10 11
40 41 42 41 38 30 24 2 20 28 6 3 2 3 3 6 16 12 6 4 3 3 3 3 4 5 4 3 6 20 8 11 14 15 10 11 21 10 12 15 14 8 11 9
34 40 37 34 38 33 5 3 10 24 14 3 2 3 3 3 4 2 2 3 2 3 2 3 5 5 5 5 16 28 11 12 13 12 7 8 18 11 15 14 17 8 19 10
35 35 33 36 31 20 6 5 25 27 8 2 1 3 3 2 1 1 1 2 1 3 3 2 3 2 4 8 17 11 11 11 12 12 9 16 14 14 14 13 13 10 9 4
36 36 36 23 11 3 5 23 18 9 4 3 2 2 3 2 1 2 2 1 2 1 3 3 3 3 6 13 9 7 8 6 9 6 8 8 10 9 4 6 9 7 8 6
43 26 4 3 6 31 24 4 2 2 2 1 3 1 2 3 1 1 2 2 2 3 4 1 3 6 12 15 15 13 7 7 6 4 2 3 4 1 3 4 4 5 5 5
6 2 2 21 26 6 2 3 3 3 3 4 4 5 3 2 3 3 2 2 2 3 2 2 2 3 7 14 4 3 5 6 4 3 3 1 1 3 3 3 7 7 7 6
8 16 13 5 3 2 3 1 3 3 4 4 4 4 4 1 3 3 1 2 1 5 1 2 3 2 8 10 12 8 5 6 9 7 6 6 5 5 4 4 4 5 8 11
10 5 3 2 1 3 6 6 3 3 3 3 3 1 4 1 1 2 2 3 4 1 2 2 2 4 5 7 6 8 8 7 7 8 7 7 6 8 6 4 9 10 9 13
2 3 4 3 3 4 4 3 4 4 3 4 4 1 3 1 2 2 3 4 2 2 2 2 1 4 5 5 5 6 6 6 6 6 5 6 7 6 11 12 11 9 8 11
2 3 4 4 2 0 1 1 0 2 3 5 3 3 2 2 2 3 2 2 3 3 2 1 1 3 4 4 4 4 5 4 5 5 5 5 5 5 6 9 9 10 10 11
2 1 2 1 3 3 1 1 2 2 3 2 3 3 3 1 3 3 5 2 3 1 2 2 2 3 2 3 3 4 4 4 4 5 5 6 6 5 4 9 11 11 12 13
0 0 1 1 1 3 3 2 2 2 2 3 3 4 6 2 2 3 3 3 2 1 2 1 3 3 2 1 1 1 1 2 2 2 3 1 1 3 5 4 7 11 12 12
Wind_Direction
158 164 168 170 170 169 158 120 125 159 161 153 179 175 181 224 250 59 233 260 249 256 266 272 258 263 251 116 58 358 104 275 309 276 284 336 282 71 295 341 335 283 307 130
152 157 161 169 171 167 142 103 115 160 169 185 192 207 222 243 237 184 175 228 215 89 276 242 231 266 27 200 196 218 179 8 308 308 139 97 357 307 244 274 230 277 3 292
172 171 168 171 177 168 135 112 137 147 190 112 176 179 211 219 192 197 192 211 197 244 257 228 250 210 192 239 214 223 166 204 213 241 268 306 281 298 303 256 269 355 267 277
180 177 180 178 182 176 139 133 182 179 180 197 155 168 197 215 222 174 175 240 214 212 237 245 236 211 191 206 217 172 191 238 238 252 264 278 277 294 291 293 292 271 276 281
208 198 190 185 187 186 111 133 140 60 119 139 168 182 199 201 176 151 260 222 189 255 248 250 260 169 186 197 177 180 196 253 237 282 287 265 278 285 278 268 268 257 254 266
212 206 202 199 191 179 124 117 86 118 160 138 173 205 218 230 187 243 234 224 208 207 217 94 267 247 201 171 173 202 187 214 161 256 265 280 286 258 274 262 260 269 282 289
214 209 205 201 196 188 126 134 108 106 160 177 189 176 193 202 192 197 262 208 190 216 170 163 265 289 277 250 237 186 226 176 172 264 270 216 236 301 282 264 283 9 327 330
212 209 207 203 198 191 164 151 122 114 114 202 192 192 180 211 216 198 191 197 199 139 125 64 18 333 335 253 224 226 219 198 256 211 228 277 288 3 338 322 249 38 329 329
210 205 203 202 199 189 184 177 159 117 118 224 185 162 172 168 162 160 227 189 135 94 93 82 146 241 273 275 302 215 180 203 201 328 263 261 324 335 315 280 250 343 335 324
212 205 201 198 193 189 183 170 175 127 120 234 161 178 173 137 125 171 165 158 131 57 94 107 167 225 235 234 224 241 299 47 197 231 245 273 4 325 312 272 327 316 317 292
208 203 198 193 193 185 178 174 182 148 126 276 150 127 139 139 158 148 186 74 338 64 114 140 220 179 232 254 230 201 224 166 237 262 230 253 1 329 354 309 284 281 306 313
200 199 195 189 189 179 168 163 186 188 113 251 344 214 253 263 193 144 164 177 167 176 98 167 122 238 222 207 247 244 240 189 190 179 232 269 189 229 269 260 287 304 304 294
196 194 191 184 185 180 174 167 167 169 103 309 51 225 233 253 237 224 129 278 160 171 161 163 186 212 145 198 235 217 252 197 210 165 246 262 265 262 270 281 299 298 305 294
191 183 184 182 180 185 172 162 171 159 130 152 266 223 220 231 245 225 206 159 119 113 114 142 165 191 184 230 240 208 198 184 211 257 279 277 268 251 254 287 292 292 291 283
184 174 175 176 175 181 165 162 175 178 133 180 278 310 254 222 226 219 217 161 125 133 116 138 216 211 183 219 266 252 188 227 197 253 257 236 265 272 299 295 297 296 308 319
156 167 168 171 175 161 132 81 193 198 194 74 355 298 276 200 204 193 167 145 145 154 164 218 234 212 168 220 244 254 220 220 227 246 253 241 259 285 281 286 289 293 308 295
159 163 164 170 158 146 126 171 164 173 162 88 329 315 276 206 110 101 123 139 189 149 210 219 225 215 205 243 256 265 263 241 233 230 231 263 263 281 285 292 287 306 283 271
153 152 158 153 141 128 77 62 151 153 94 75 136 265 350 141 121 103 54 157 28 217 219 275 229 229 218 247 251 257 253 243 242 227 194 242 273 277 282 287 302 261 262 221
144 141 135 124 119 95 110 134 139 132 115 167 191 200 232 17 69 107 39 140 242 280 245 241 168 216 234 246 276 266 258 229 240 226 224 240 240 262 289 340 8 15 24 14
128 117 87 91 127 123 119 92 75 33 22 98 240 177 258 105 5 353 81 261 248 260 245 94 233 262 277 288 274 258 227 242 215 189 210 243 289 302 53 354 359 3 357 4
82 67 69 114 130 89 57 125 144 137 203 207 221 191 182 237 116 196 187 208 225 261 265 224 266 278 339 334 275 232 199 142 150 160 235 309 222 5 55 12 17 0 3 354
130 110 96 83 83 76 104 159 146 191 217 188 176 203 185 204 122 113 216 222 202 253 203 239 270 3 354 9 30 75 40 50 67 64 70 64 64 61 73 54 18 9 358 356
97 69 92 125 125 79 157 179 190 204 197 187 157 143 149 91 80 87 121 234 238 323 239 258 272 15 13 10 35 52 58 74 84 79 79 78 76 65 60 53 30 29 20 15
117 134 122 179 190 216 193 193 181 217 152 151 134 86 126 113 102 158 190 234 246 257 267 277 28 359 23 16 34 67 60 59 75 78 75 63 48 40 36 33 31 29 21 25
109 119 175 205 211 50 253 221 316 234 147 133 90 60 97 110 94 203 240 247 261 239 257 284 63 41 18 26 37 52 56 53 53 49 54 51 44 43 43 44 54 57 50 47
55 103 71 329 64 307 299 243 260 207 127 80 67 127 71 224 177 187 228 237 226 228 282 192 123 93 53 44 42 45 52 56 53 47 49 51 45 40 38 60 59 58 59 55
201 183 79 109 115 191 227 181 237 141 86 127 125 163 206 136 215 221 205 218 237 210 100 130 119 124 127 129 102 79 64 81 87 67 48 62 138 79 65 56 52 58 55 57
Height
680 687 694 700 709 718 727 735 750 750 753 765 767 773 760 756 757 757 762 764 766 769 767 764 762 756 753 768 776 777 777 776 762 753 724 723 739 738 750 717 719 712 686 675
685 690 696 703 707 714 722 737 746 751 749 756 761 759 760 761 758 759 762 763 763 764 769 774 762 760 763 766 769 779 775 773 768 733 730 739 747 743 740 741 729 719 716 697
687 693 698 704 708 713 719 734 744 750 750 754 753 757 759 761 758 760 761 769 769 773 773 771 769 764 759 762 763 764 770 768 771 769 747 746 744 732 729 738 728 716 719 705
688 692 698 703 709 712 719 729 732 736 739 748 755 756 760 760 763 759 765 765 765 766 771 766 765 762 759 759 761 762 766 772 758 750 742 742 746 727 720 723 711 728 703 699
688 692 698 702 706 712 716 725 730 737 742 740 752 753 758 761 759 765 772 774 766 768 769 765 760 763 764 760 762 769 769 780 764 769 740 734 736 725 716 711 706 705 698 682
686 690 695 700 704 707 713 721 725 726 736 746 750 746 748 751 756 757 755 760 768 771 765 765 769 762 758 752 760 768 773 782 774 765 741 737 749 713 703 694 686 687 689 679
681 687 693 697 700 705 708 715 723 729 738 739 741 742 746 749 753 758 757 757 761 754 758 757 760 759 761 760 758 761 767 773 778 770 750 776 714 700 696 691 684 689 690 684
676 682 688 695 699 704 709 713 719 728 739 735 736 739 740 743 743 752 752 758 753 751 759 770 771 774 763 751 755 756 758 767 775 779 748 725 708 702 708 704 693 699 700 684
671 676 683 687 699 704 710 716 719 726 736 737 732 734 738 747 752 750 752 747 750 752 760 777 787 780 756 756 745 740 752 759 763 766 750 735 709 709 705 700 699 694 695 687
660 668 677 685 695 702 708 711 718 724 737 735 730 739 734 734 747 753 745 749 751 753 784 808 794 772 755 758 748 744 763 790 774 760 749 726 726 721 703 700 704 697 693 693
653 662 671 681 690 697 705 712 717 717 736 733 727 730 730 735 740 747 744 754 756 767 781 783 795 790 767 757 742 740 744 767 774 763 740 735 723 718 721 711 699 696 689 683
646 656 666 675 684 693 702 710 714 722 729 732 728 729 731 732 730 736 743 742 748 753 769 778 784 777 774 766 764 738 747 743 749 741 728 711 719 715 708 703 697 691 686 679
640 650 661 671 682 691 698 706 713 723 730 732 731 727 725 728 729 729 740 742 740 744 745 761 766 762 761 759 752 737 731 724 738 729 712 709 707 704 700 697 694 686 681 675
636 646 658 669 679 690 698 704 711 718 725 736 725 719 722 723 725 727 728 731 734 737 743 754 757 752 745 749 735 735 729 721 721 719 710 709 703 696 694 692 689 683 676 673
633 643 656 667 678 689 698 704 710 715 719 728 723 719 716 718 720 723 727 729 734 740 748 754 751 742 741 738 736 721 715 710 723 712 701 706 698 691 690 686 682 677 672 667
626 645 657 669 679 688 697 710 713 713 717 726 731 718 715 715 717 720 723 727 732 735 741 742 734 729 734 741 719 686 696 698 699 698 694 696 687 688 683 680 676 671 667 667
641 651 661 672 680 689 698 704 702 712 719 727 732 726 714 712 716 721 724 726 730 734 738 737 727 724 722 714 701 671 687 687 688 688 691 693 682 682 676 675 668 667 662 661
648 657 668 676 685 694 699 701 705 711 720 726 737 726 723 713 720 725 724 729 733 724 726 722 718 713 710 693 669 673 677 678 680 680 682 677 677 677 674 668 661 657 657 656
657 665 675 681 690 698 702 707 711 714 720 727 729 725 727 717 725 724 728 725 727 722 716 710 708 702 692 669 672 674 676 676 674 674 674 675 675 673 670 668 666 664 663 663
664 673 679 689 696 699 705 712 716 719 720 723 720 721 721 718 733 735 738 728 720 720 708 708 701 683 671 667 669 668 669 669 670 672 671 671 673 668 671 672 672 670 670 667
672 677 683 690 696 701 707 709 713 718 718 716 714 714 717 714 722 728 729 733 724 712 702 703 695 679 675 670 658 664 666 668 669 669 670 672 673 672 672 674 672 671 669 669
673 677 688 693 699 705 708 710 711 714 708 710 711 712 711 713 713 721 723 717 714 708 710 699 691 678 680 676 672 668 669 669 671 673 673 675 676 676 677 677 677 674 673 671
677 683 691 693 703 715 715 711 703 708 701 703 705 713 709 712 711 718 720 711 710 702 698 687 684 683 684 683 680 679 678 677 677 678 680 681 682 682 680 678 676 675 675 673
681 685 692 692 700 698 697 692 692 692 694 697 698 711 706 709 714 715 714 707 703 693 698 682 684 687 688 687 685 684 684 683 684 685 685 683 681 681 680 680 680 680 678 677
680 683 692 694 689 691 693 694 692 690 690 692 700 705 707 708 717 707 706 700 693 686 689 686 690 691 690 690 689 689 688 688 687 687 687 687 687 687 686 686 686 684 683 682
682 682 689 693 696 706 694 693 694 688 690 694 696 702 711 712 708 701 700 689 683 684 687 694 693 692 693 692 692 692 691 691 691 690 690 690 690 690 690 689 689 688 687 685
681 683 687 691 699 700 700 695 689 686 691 696 696 700 694 702 699 692 688 690 686 688 690 690 692 692 694 694 694 694 694 694 694 694 694 693 693 693 692 692 692 691 690 689